Change the Weather History Date:

Monday, July 15, 2013

  Actual Average Record
Temperature  
Mean Temperature 101 °F 95 °F  
Max Temperature 113 °F 107 °F 116 °F (1998)
Min Temperature 88 °F 83 °F 62 °F (1907)
Degree Days  
Heating Degree Days 0 0  
Month to date heating degree days 0 0  
Since 1 June heating degree days 0 0  
Since 1 July heating degree days 0 0  
Cooling Degree Days 36 30  
Month to date cooling degree days 474 434  
Year to date cooling degree days 2340 2067  
Since 1 June cooling degree days 1279 1155  
Growing Degree Days 50 (Base 50)    
Moisture  
Dew Point 57 °F    
Average Humidity 28    
Maximum Humidity 43    
Minimum Humidity 13    
Precipitation  
Precipitation 0.00 in 0.01 in 0.18 in (1990)
Month to date precipitation T 0.08  
Year to date precipitation 1.11 1.41  
Sea Level Pressure  
Sea Level Pressure 29.67 in    
Wind  
Wind Speed 8 mph (SSW)    
Max Wind Speed 18 mph    
Max Gust Speed 30 mph    
Visibility 10 miles    
Events      
T = Trace of Precipitation, MM = Missing Value Source: NWS Daily Summary

Daily Weather History Graph

Daily Weather History Graph

Search for Another Location

Airport or City:

Trip Planner

Search our weather history database for the weather conditions in past years. The results will help you decide how hot, cold, wet, or windy it might be!

Date:

Astronomy

Jul. 15, 2013 Rise Set
Actual Time 5:41 AM MST 7:46 PM MST
Civil Twilight 5:13 AM MST 8:14 PM MST
Nautical Twilight 4:39 AM MST 8:48 PM MST
Astronomical Twilight 4:03 AM MST 9:24 PM MST
Moon 12:38 PM MST (7/15) No Moon Set
Length of Visible Light 15h 00m
Length of Day
14h 05m
Waxing Crescent, 46% of the Moon is Illuminated
Jul 15
Waxing Crescent
Jul 15
First Quarter
Jul 22
Full
Jul 29
Last Quarter
Aug 6
New

Hourly Weather History & Observations

Time (MST) Temp. Heat Index Dew Point Humidity Pressure Visibility Wind Dir Wind Speed Gust Speed Precip Events Conditions
12:57 AM 91.9 °F 91.8 °F 61.0 °F 35% 29.70 in 10.0 mi South 5.8 mph - N/A   Scattered Clouds
1:57 AM 90.0 °F 90.0 °F 61.0 °F 38% 29.70 in 10.0 mi SSE 4.6 mph - N/A   Scattered Clouds
2:57 AM 89.1 °F 89.0 °F 61.0 °F 39% 29.69 in 10.0 mi SSE 4.6 mph - N/A   Scattered Clouds
3:57 AM 88.0 °F 88.4 °F 62.1 °F 42% 29.69 in 10.0 mi SSE 8.1 mph - N/A   Mostly Cloudy
4:57 AM 88.0 °F 88.4 °F 62.1 °F 42% 29.69 in 10.0 mi SSE 11.5 mph - N/A   Mostly Cloudy
5:57 AM 88.0 °F 87.9 °F 61.0 °F 40% 29.70 in 10.0 mi SE 6.9 mph - N/A   Mostly Cloudy
6:57 AM 91.0 °F 90.2 °F 59.0 °F 34% 29.71 in 10.0 mi SE 4.6 mph - N/A   Mostly Cloudy
7:57 AM 93.0 °F 92.3 °F 59.0 °F 32% 29.73 in 10.0 mi SE 3.5 mph - N/A   Scattered Clouds
8:57 AM 97.0 °F 96.5 °F 59.0 °F 28% 29.73 in 10.0 mi South 9.2 mph - N/A   Scattered Clouds
9:57 AM 100.0 °F 99.2 °F 57.0 °F 24% 29.73 in 10.0 mi South 9.2 mph - N/A   Partly Cloudy
10:57 AM 102.9 °F 102.4 °F 57.0 °F 22% 29.72 in 10.0 mi South 8.1 mph - N/A   Partly Cloudy
11:57 AM 107.1 °F 106.7 °F 55.9 °F 19% 29.70 in 10.0 mi SW 10.4 mph - N/A   Partly Cloudy
12:57 PM 107.1 °F 106.7 °F 55.9 °F 19% 29.68 in 10.0 mi WSW 6.9 mph - N/A   Partly Cloudy
1:57 PM 109.9 °F 108.6 °F 54.0 °F 16% 29.65 in 10.0 mi SSW 13.8 mph - N/A   Partly Cloudy
2:57 PM 109.0 °F - 52.0 °F 15% 29.62 in 10.0 mi Variable 6.9 mph - N/A   Scattered Clouds
3:57 PM 111.9 °F 109.7 °F 53.1 °F 14% 29.59 in 10.0 mi WSW 12.7 mph 24.2 mph N/A   Partly Cloudy
4:57 PM 111.9 °F - 48.9 °F 12% 29.58 in 10.0 mi WSW 9.2 mph - N/A   Partly Cloudy
5:57 PM 111.0 °F - 48.9 °F 13% 29.57 in 10.0 mi West 8.1 mph - N/A   Scattered Clouds
6:23 PM 107.6 °F 106.1 °F 53.6 °F 17% 29.59 in 10.0 mi SSW 17.3 mph - N/A   Scattered Clouds
6:57 PM 106.0 °F 103.9 °F 53.1 °F 17% 29.59 in 10.0 mi SSW 13.8 mph - N/A   Scattered Clouds
7:57 PM 100.9 °F 99.1 °F 54.0 °F 21% 29.61 in 10.0 mi SSW 10.4 mph - N/A   Mostly Cloudy
8:57 PM 98.1 °F 96.8 °F 57.0 °F 25% 29.65 in 10.0 mi West 9.2 mph - N/A   Mostly Cloudy
9:57 PM 96.1 °F 94.8 °F 57.0 °F 27% 29.67 in 9.0 mi WSW 6.9 mph - N/A   Mostly Cloudy
10:57 PM 93.9 °F 92.6 °F 57.0 °F 29% 29.68 in 10.0 mi WSW 8.1 mph - N/A   Mostly Cloudy
11:57 PM 91.9 °F 91.2 °F 59.0 °F 33% 29.70 in 10.0 mi WSW 6.9 mph - N/A   Mostly Cloudy